contact:dominique.lefevre@mio.osupytheas.fr, maurice.libes@osupytheas.fr, didier.mallarino@osupytheas.fr
Project:EMSO http://www.emso-fr.org/EMSO-France
Depth: 2436.0 m
Title:EMSO Ligure Ouest : Data MII capteur MICROCAT
DateTime_Computer,Latitude,Longitude,Temperature,Conductivity,Pressure,DateTime_Instrument
DateTime_Computer,Latitude,Longitude,degC,S m-1,dbar,DateTime_Instrument
2019-10-18T00:01:52Z,42.805,6.029,13.2961,4.59977,2470.007,2019-10-18T02:02:17Z
2019-10-18T00:04:55Z,42.805,6.029,13.2959,4.59986,2470.007,2019-10-18T02:05:21Z
2019-10-18T00:07:58Z,42.805,6.029,13.2963,4.59974,2470.03,2019-10-18T02:08:24Z
2019-10-18T00:11:01Z,42.805,6.029,13.2960,4.59969,2469.993,2019-10-18T02:11:27Z
2019-10-18T00:14:05Z,42.805,6.029,13.2955,4.59961,2469.96,2019-10-18T02:14:30Z
2019-10-18T00:17:08Z,42.805,6.029,13.2955,4.59963,2469.956,2019-10-18T02:17:33Z
2019-10-18T00:20:11Z,42.805,6.029,13.2953,4.59971,2470.007,2019-10-18T02:20:37Z
2019-10-18T00:23:14Z,42.805,6.029,13.2960,4.59964,2469.993,2019-10-18T02:23:40Z
2019-10-18T00:26:18Z,42.805,6.029,13.2958,4.59974,2469.993,2019-10-18T02:26:43Z
2019-10-18T00:29:21Z,42.805,6.029,13.2954,4.59966,2469.984,2019-10-18T02:29:46Z
2019-10-18T00:32:24Z,42.805,6.029,13.2954,4.59962,2469.947,2019-10-18T02:32:50Z
2019-10-18T00:35:27Z,42.805,6.029,13.2954,4.59967,2469.97,2019-10-18T02:35:53Z
2019-10-18T00:38:30Z,42.805,6.029,13.2957,4.59966,2469.97,2019-10-18T02:38:56Z
2019-10-18T00:41:34Z,42.805,6.029,13.2957,4.59966,2469.984,2019-10-18T02:41:59Z
2019-10-18T00:44:37Z,42.805,6.029,13.2959,4.59958,2469.97,2019-10-18T02:45:02Z
2019-10-18T00:47:40Z,42.805,6.029,13.2958,4.59961,2469.923,2019-10-18T02:48:06Z
2019-10-18T00:50:43Z,42.805,6.029,13.2958,4.59960,2469.97,2019-10-18T02:51:09Z
2019-10-18T00:53:47Z,42.805,6.029,13.2953,4.59962,2469.984,2019-10-18T02:54:12Z
2019-10-18T00:56:50Z,42.805,6.029,13.2960,4.59962,2469.947,2019-10-18T02:57:15Z
2019-10-18T00:59:53Z,42.805,6.029,13.2956,4.59961,2469.937,2019-10-18T03:00:19Z
2019-10-18T01:02:56Z,42.805,6.029,13.2958,4.59958,2469.923,2019-10-18T03:03:22Z
2019-10-18T01:05:59Z,42.805,6.029,13.2958,4.59958,2469.97,2019-10-18T03:06:25Z
2019-10-18T01:09:03Z,42.805,6.029,13.2956,4.59958,2469.96,2019-10-18T03:09:28Z
2019-10-18T01:12:06Z,42.805,6.029,13.2957,4.59958,2469.984,2019-10-18T03:12:31Z
2019-10-18T01:15:09Z,42.805,6.029,13.2954,4.59961,2469.947,2019-10-18T03:15:35Z
2019-10-18T01:18:12Z,42.805,6.029,13.2958,4.59958,2469.96,2019-10-18T03:18:38Z
2019-10-18T01:21:16Z,42.805,6.029,13.2958,4.59956,2469.96,2019-10-18T03:21:41Z
2019-10-18T01:24:19Z,42.805,6.029,13.2954,4.59957,2469.947,2019-10-18T03:24:44Z
2019-10-18T01:27:22Z,42.805,6.029,13.2958,4.59958,2469.937,2019-10-18T03:27:48Z
2019-10-18T01:30:25Z,42.805,6.029,13.2960,4.59958,2469.947,2019-10-18T03:30:51Z
2019-10-18T01:33:28Z,42.805,6.029,13.2958,4.59957,2469.923,2019-10-18T03:33:54Z
2019-10-18T01:36:32Z,42.805,6.029,13.2958,4.59957,2469.937,2019-10-18T03:36:57Z
2019-10-18T01:39:35Z,42.805,6.029,13.2956,4.59958,2469.96,2019-10-18T03:40:00Z
2019-10-18T01:42:38Z,42.805,6.029,13.2957,4.59958,2469.947,2019-10-18T03:43:04Z
2019-10-18T01:45:41Z,42.805,6.029,13.2957,4.59961,2469.97,2019-10-18T03:46:07Z
2019-10-18T01:48:44Z,42.805,6.029,13.2960,4.59956,2469.937,2019-10-18T03:49:10Z
2019-10-18T01:51:48Z,42.805,6.029,13.2957,4.59958,2469.923,2019-10-18T03:52:13Z
2019-10-18T01:54:51Z,42.805,6.029,13.2955,4.59957,2469.923,2019-10-18T03:55:17Z
2019-10-18T01:57:54Z,42.805,6.029,13.2961,4.59958,2469.96,2019-10-18T03:58:20Z
2019-10-18T02:00:57Z,42.805,6.029,13.2957,4.59958,2469.9,2019-10-18T04:01:23Z
2019-10-18T02:04:01Z,42.805,6.029,13.2961,4.59958,2469.947,2019-10-18T04:04:26Z
2019-10-18T02:07:04Z,42.805,6.029,13.2953,4.59960,2469.96,2019-10-18T04:07:29Z
2019-10-18T02:10:07Z,42.805,6.029,13.2958,4.59957,2469.9,2019-10-18T04:10:33Z
2019-10-18T02:13:10Z,42.805,6.029,13.2954,4.59961,2469.89,2019-10-18T04:13:36Z
2019-10-18T02:16:13Z,42.805,6.029,13.2953,4.59957,2469.937,2019-10-18T04:16:39Z
2019-10-18T02:19:17Z,42.805,6.029,13.2956,4.59958,2469.9,2019-10-18T04:19:42Z
2019-10-18T02:22:20Z,42.805,6.029,13.2958,4.59957,2469.937,2019-10-18T04:22:46Z
2019-10-18T02:25:23Z,42.805,6.029,13.2959,4.59956,2469.923,2019-10-18T04:25:49Z
2019-10-18T02:28:26Z,42.805,6.029,13.2954,4.59956,2469.96,2019-10-18T04:28:52Z
2019-10-18T02:31:30Z,42.805,6.029,13.2954,4.59956,2469.9,2019-10-18T04:31:55Z
2019-10-18T02:34:33Z,42.805,6.029,13.2958,4.59956,2469.923,2019-10-18T04:34:58Z
2019-10-18T02:37:36Z,42.805,6.029,13.2957,4.59956,2469.89,2019-10-18T04:38:02Z
2019-10-18T02:40:39Z,42.805,6.029,13.2952,4.59956,2469.923,2019-10-18T04:41:05Z
2019-10-18T02:43:42Z,42.805,6.029,13.2955,4.59956,2469.923,2019-10-18T04:44:08Z
2019-10-18T02:46:46Z,42.805,6.029,13.2955,4.59956,2469.923,2019-10-18T04:47:11Z
2019-10-18T02:49:49Z,42.805,6.029,13.2958,4.59955,2469.937,2019-10-18T04:50:14Z
2019-10-18T02:52:52Z,42.805,6.029,13.2957,4.59955,2469.923,2019-10-18T04:53:18Z
2019-10-18T02:55:55Z,42.805,6.029,13.2955,4.59956,2469.914,2019-10-18T04:56:21Z
2019-10-18T02:58:59Z,42.805,6.029,13.2953,4.59956,2469.923,2019-10-18T04:59:24Z
2019-10-18T03:02:02Z,42.805,6.029,13.2957,4.59958,2469.937,2019-10-18T05:02:27Z
2019-10-18T03:05:05Z,42.805,6.029,13.2957,4.59956,2469.923,2019-10-18T05:05:31Z
2019-10-18T03:08:09Z,42.805,6.029,13.2953,4.59960,2469.9,2019-10-18T05:08:34Z
2019-10-18T03:11:12Z,42.805,6.029,13.2958,4.59957,2469.914,2019-10-18T05:11:38Z
2019-10-18T03:14:15Z,42.805,6.029,13.2957,4.59958,2469.853,2019-10-18T05:14:41Z
2019-10-18T03:17:18Z,42.805,6.029,13.2953,4.59958,2469.914,2019-10-18T05:17:44Z
2019-10-18T03:20:22Z,42.805,6.029,13.2955,4.59959,2469.89,2019-10-18T05:20:47Z
2019-10-18T03:23:25Z,42.805,6.029,13.2959,4.59957,2469.914,2019-10-18T05:23:50Z
2019-10-18T03:26:28Z,42.805,6.029,13.2958,4.59957,2469.9,2019-10-18T05:26:54Z
2019-10-18T03:29:31Z,42.805,6.029,13.2953,4.59958,2469.914,2019-10-18T05:29:57Z
2019-10-18T03:32:34Z,42.805,6.029,13.2958,4.59958,2469.923,2019-10-18T05:33:00Z
2019-10-18T03:35:38Z,42.805,6.029,13.2954,4.59958,2469.937,2019-10-18T05:36:03Z
2019-10-18T03:38:41Z,42.805,6.029,13.2957,4.59961,2469.9,2019-10-18T05:39:06Z
2019-10-18T03:41:44Z,42.805,6.029,13.2954,4.59957,2469.876,2019-10-18T05:42:10Z
2019-10-18T03:44:47Z,42.805,6.029,13.2955,4.59958,2469.923,2019-10-18T05:45:13Z
2019-10-18T03:47:50Z,42.805,6.029,13.2961,4.59958,2469.9,2019-10-18T05:48:16Z
2019-10-18T03:50:54Z,42.805,6.029,13.2955,4.59961,2469.9,2019-10-18T05:51:19Z
2019-10-18T03:53:57Z,42.805,6.029,13.2955,4.59956,2469.9,2019-10-18T05:54:22Z
2019-10-18T03:57:00Z,42.805,6.029,13.2954,4.59956,2469.914,2019-10-18T05:57:26Z
2019-10-18T04:00:03Z,42.805,6.029,13.2956,4.59957,2469.9,2019-10-18T06:00:29Z
2019-10-18T04:03:07Z,42.805,6.029,13.2955,4.59956,2469.9,2019-10-18T06:03:32Z
2019-10-18T04:06:10Z,42.805,6.029,13.2954,4.59956,2469.937,2019-10-18T06:06:36Z
2019-10-18T04:09:13Z,42.805,6.029,13.2957,4.59956,2469.923,2019-10-18T06:09:39Z
2019-10-18T04:12:16Z,42.805,6.029,13.2955,4.59958,2469.9,2019-10-18T06:12:42Z
2019-10-18T04:15:20Z,42.805,6.029,13.2954,4.59956,2469.923,2019-10-18T06:15:45Z
2019-10-18T04:18:23Z,42.805,6.029,13.2956,4.59958,2469.923,2019-10-18T06:18:48Z
2019-10-18T04:21:26Z,42.805,6.029,13.2953,4.59957,2469.9,2019-10-18T06:21:52Z
2019-10-18T04:24:29Z,42.805,6.029,13.2955,4.59957,2469.937,2019-10-18T06:24:55Z
2019-10-18T04:27:33Z,42.805,6.029,13.2958,4.59958,2469.937,2019-10-18T06:27:58Z
2019-10-18T04:30:36Z,42.805,6.029,13.2957,4.59955,2469.923,2019-10-18T06:31:01Z
2019-10-18T04:33:39Z,42.805,6.029,13.2958,4.59957,2469.937,2019-10-18T06:34:05Z
2019-10-18T04:36:42Z,42.805,6.029,13.2957,4.59958,2469.923,2019-10-18T06:37:08Z
2019-10-18T04:39:45Z,42.805,6.029,13.2956,4.59956,2469.914,2019-10-18T06:40:11Z
2019-10-18T04:42:49Z,42.805,6.029,13.2956,4.59958,2469.937,2019-10-18T06:43:14Z
2019-10-18T04:45:52Z,42.805,6.029,13.2953,4.59956,2469.923,2019-10-18T06:46:17Z
2019-10-18T04:48:55Z,42.805,6.029,13.2958,4.59960,2469.914,2019-10-18T06:49:21Z
2019-10-18T04:51:58Z,42.805,6.029,13.2959,4.59956,2469.9,2019-10-18T06:52:24Z
2019-10-18T04:55:02Z,42.805,6.029,13.2958,4.59958,2469.923,2019-10-18T06:55:27Z
2019-10-18T04:58:05Z,42.805,6.029,13.2958,4.59957,2469.947,2019-10-18T06:58:31Z
2019-10-18T05:01:08Z,42.805,6.029,13.2955,4.59956,2469.923,2019-10-18T07:01:34Z
2019-10-18T05:04:11Z,42.805,6.029,13.2958,4.59958,2469.9,2019-10-18T07:04:37Z
2019-10-18T05:07:15Z,42.805,6.029,13.2957,4.59958,2469.937,2019-10-18T07:07:40Z
2019-10-18T05:10:18Z,42.805,6.029,13.2956,4.59956,2469.914,2019-10-18T07:10:43Z
2019-10-18T05:13:21Z,42.805,6.029,13.2957,4.59955,2469.923,2019-10-18T07:13:47Z
2019-10-18T05:16:24Z,42.805,6.029,13.2952,4.59957,2469.947,2019-10-18T07:16:50Z
2019-10-18T05:19:28Z,42.805,6.029,13.2957,4.59958,2469.947,2019-10-18T07:19:53Z
2019-10-18T05:22:31Z,42.805,6.029,13.2953,4.59957,2469.9,2019-10-18T07:22:57Z
2019-10-18T05:25:34Z,42.805,6.029,13.2953,4.59956,2469.97,2019-10-18T07:26:00Z
2019-10-18T05:28:37Z,42.805,6.029,13.2953,4.59956,2469.947,2019-10-18T07:29:03Z
2019-10-18T05:31:41Z,42.805,6.029,13.2957,4.59956,2469.96,2019-10-18T07:32:06Z
2019-10-18T05:34:44Z,42.805,6.029,13.2957,4.59959,2469.923,2019-10-18T07:35:09Z
2019-10-18T05:37:47Z,42.805,6.029,13.2956,4.59957,2469.923,2019-10-18T07:38:13Z
2019-10-18T05:40:50Z,42.805,6.029,13.2958,4.59956,2469.947,2019-10-18T07:41:16Z
2019-10-18T05:43:54Z,42.805,6.029,13.2960,4.59956,2469.937,2019-10-18T07:44:19Z
2019-10-18T05:46:57Z,42.805,6.029,13.2957,4.59960,2469.947,2019-10-18T07:47:22Z
2019-10-18T05:50:00Z,42.805,6.029,13.2956,4.59957,2469.947,2019-10-18T07:50:26Z
2019-10-18T05:53:03Z,42.805,6.029,13.2958,4.59961,2469.947,2019-10-18T07:53:29Z
2019-10-18T05:56:07Z,42.805,6.029,13.2953,4.59957,2469.96,2019-10-18T07:56:32Z
2019-10-18T05:59:10Z,42.805,6.029,13.2958,4.59960,2469.97,2019-10-18T07:59:35Z
2019-10-18T06:02:13Z,42.805,6.029,13.2957,4.59958,2469.97,2019-10-18T08:02:39Z
2019-10-18T06:05:16Z,42.805,6.029,13.2957,4.59956,2469.984,2019-10-18T08:05:42Z
2019-10-18T06:08:20Z,42.805,6.029,13.2955,4.59955,2469.97,2019-10-18T08:08:45Z
2019-10-18T06:11:23Z,42.805,6.029,13.2956,4.59955,2469.97,2019-10-18T08:11:48Z
2019-10-18T06:14:26Z,42.805,6.029,13.2958,4.59956,2469.993,2019-10-18T08:14:52Z
2019-10-18T06:17:29Z,42.805,6.029,13.2954,4.59956,2469.97,2019-10-18T08:17:55Z
2019-10-18T06:20:32Z,42.805,6.029,13.2959,4.59955,2469.993,2019-10-18T08:20:58Z
2019-10-18T06:23:36Z,42.805,6.029,13.2957,4.59956,2469.96,2019-10-18T08:24:01Z
2019-10-18T06:26:39Z,42.805,6.029,13.2953,4.59954,2469.993,2019-10-18T08:27:05Z
2019-10-18T06:29:42Z,42.805,6.029,13.2954,4.59957,2469.947,2019-10-18T08:30:08Z
2019-10-18T06:32:45Z,42.805,6.029,13.2957,4.59956,2470.007,2019-10-18T08:33:11Z
2019-10-18T06:35:49Z,42.805,6.029,13.2958,4.59955,2469.984,2019-10-18T08:36:14Z
2019-10-18T06:38:52Z,42.805,6.029,13.2955,4.59955,2469.993,2019-10-18T08:39:18Z
2019-10-18T06:41:55Z,42.805,6.029,13.2955,4.59955,2470.007,2019-10-18T08:42:21Z
2019-10-18T06:44:58Z,42.805,6.029,13.2953,4.59956,2469.993,2019-10-18T08:45:24Z
2019-10-18T06:48:02Z,42.805,6.029,13.2953,4.59955,2470.03,2019-10-18T08:48:27Z
2019-10-18T06:51:05Z,42.805,6.029,13.2956,4.59956,2470.04,2019-10-18T08:51:30Z
2019-10-18T06:54:08Z,42.805,6.029,13.2957,4.59956,2469.993,2019-10-18T08:54:34Z
2019-10-18T06:57:11Z,42.805,6.029,13.2957,4.59956,2469.993,2019-10-18T08:57:37Z
2019-10-18T07:00:15Z,42.805,6.029,13.2958,4.59956,2470.053,2019-10-18T09:00:40Z
2019-10-18T07:03:18Z,42.805,6.029,13.2956,4.59957,2470.017,2019-10-18T09:03:43Z
2019-10-18T07:06:21Z,42.805,6.029,13.2958,4.59961,2470.04,2019-10-18T09:06:47Z
2019-10-18T07:09:24Z,42.805,6.029,13.2958,4.59956,2470.017,2019-10-18T09:09:50Z
2019-10-18T07:12:28Z,42.805,6.029,13.2957,4.59956,2470.077,2019-10-18T09:12:53Z
2019-10-18T07:15:31Z,42.805,6.029,13.2952,4.59956,2470.04,2019-10-18T09:15:56Z
2019-10-18T07:18:34Z,42.805,6.029,13.2957,4.59955,2470.03,2019-10-18T09:19:00Z
2019-10-18T07:21:37Z,42.805,6.029,13.2957,4.59957,2470.03,2019-10-18T09:22:03Z
2019-10-18T07:24:41Z,42.805,6.029,13.2955,4.59956,2470.077,2019-10-18T09:25:06Z
2019-10-18T07:27:44Z,42.805,6.029,13.2957,4.59956,2470.017,2019-10-18T09:28:10Z
2019-10-18T07:30:47Z,42.805,6.029,13.2957,4.59956,2470.04,2019-10-18T09:31:13Z
2019-10-18T07:33:50Z,42.805,6.029,13.2952,4.59956,2470.04,2019-10-18T09:34:16Z
2019-10-18T07:36:54Z,42.805,6.029,13.2955,4.59956,2470.017,2019-10-18T09:37:19Z
2019-10-18T07:39:57Z,42.805,6.029,13.2958,4.59955,2470.04,2019-10-18T09:40:23Z
2019-10-18T07:43:00Z,42.805,6.029,13.2954,4.59956,2470.077,2019-10-18T09:43:26Z
2019-10-18T07:46:04Z,42.805,6.029,13.2955,4.59956,2470.017,2019-10-18T09:46:29Z
2019-10-18T07:49:07Z,42.805,6.029,13.2957,4.59955,2470.063,2019-10-18T09:49:32Z
2019-10-18T07:52:10Z,42.805,6.029,13.2954,4.59956,2470.053,2019-10-18T09:52:36Z
2019-10-18T07:55:13Z,42.805,6.029,13.2955,4.59957,2470.063,2019-10-18T09:55:39Z
2019-10-18T07:58:16Z,42.805,6.029,13.2956,4.59958,2470.04,2019-10-18T09:58:42Z
2019-10-18T08:01:20Z,42.805,6.029,13.2961,4.59958,2470.053,2019-10-18T10:01:45Z
2019-10-18T08:04:23Z,42.805,6.029,13.2953,4.59961,2470.1,2019-10-18T10:04:49Z
2019-10-18T08:07:26Z,42.805,6.029,13.2958,4.59956,2470.063,2019-10-18T10:07:52Z
2019-10-18T08:10:30Z,42.805,6.029,13.2957,4.59957,2470.063,2019-10-18T10:10:55Z
2019-10-18T08:13:33Z,42.805,6.029,13.2956,4.59955,2470.087,2019-10-18T10:13:58Z
2019-10-18T08:16:36Z,42.805,6.029,13.2959,4.59960,2470.1,2019-10-18T10:17:02Z
2019-10-18T08:19:39Z,42.805,6.029,13.2961,4.59956,2470.087,2019-10-18T10:20:05Z
2019-10-18T08:22:42Z,42.805,6.029,13.2957,4.59959,2470.1,2019-10-18T10:23:08Z
2019-10-18T08:25:46Z,42.805,6.029,13.2956,4.59956,2470.063,2019-10-18T10:26:11Z
2019-10-18T08:28:49Z,42.805,6.029,13.2955,4.59956,2470.063,2019-10-18T10:29:14Z
2019-10-18T08:31:52Z,42.805,6.029,13.2962,4.59956,2470.087,2019-10-18T10:32:18Z
2019-10-18T08:34:55Z,42.805,6.029,13.2957,4.59956,2470.11,2019-10-18T10:35:21Z
2019-10-18T08:37:59Z,42.805,6.029,13.2962,4.59956,2470.1,2019-10-18T10:38:24Z
2019-10-18T08:41:02Z,42.805,6.029,13.2958,4.59959,2470.063,2019-10-18T10:41:27Z
2019-10-18T08:44:05Z,42.805,6.029,13.2959,4.59956,2470.11,2019-10-18T10:44:31Z
2019-10-18T08:47:08Z,42.805,6.029,13.2961,4.59959,2470.1,2019-10-18T10:47:34Z
2019-10-18T08:50:11Z,42.805,6.029,13.2957,4.59964,2470.04,2019-10-18T10:50:37Z
2019-10-18T08:53:15Z,42.805,6.029,13.2959,4.59964,2470.1,2019-10-18T10:53:40Z
2019-10-18T08:56:18Z,42.805,6.029,13.2956,4.59956,2470.11,2019-10-18T10:56:44Z
2019-10-18T08:59:21Z,42.805,6.029,13.2953,4.59956,2470.1,2019-10-18T10:59:47Z
2019-10-18T09:02:25Z,42.805,6.029,13.2954,4.59956,2470.1,2019-10-18T11:02:50Z
2019-10-18T09:05:28Z,42.805,6.029,13.2953,4.59956,2470.087,2019-10-18T11:05:53Z
2019-10-18T09:08:31Z,42.805,6.029,13.2958,4.59955,2470.124,2019-10-18T11:08:57Z
2019-10-18T09:11:34Z,42.805,6.029,13.2958,4.59957,2470.1,2019-10-18T11:12:00Z
2019-10-18T09:14:37Z,42.805,6.029,13.2954,4.59956,2470.087,2019-10-18T11:15:03Z
2019-10-18T09:17:41Z,42.805,6.029,13.2957,4.59960,2470.11,2019-10-18T11:18:06Z
2019-10-18T09:20:44Z,42.805,6.029,13.2955,4.59956,2470.087,2019-10-18T11:21:09Z
2019-10-18T09:23:47Z,42.805,6.029,13.2958,4.59958,2470.087,2019-10-18T11:24:13Z
2019-10-18T09:26:50Z,42.805,6.029,13.2956,4.59956,2470.124,2019-10-18T11:27:16Z
2019-10-18T09:29:53Z,42.805,6.029,13.2954,4.59956,2470.087,2019-10-18T11:30:19Z
2019-10-18T09:32:57Z,42.805,6.029,13.2958,4.59956,2470.11,2019-10-18T11:33:22Z
2019-10-18T09:36:00Z,42.805,6.029,13.2959,4.59958,2470.087,2019-10-18T11:36:25Z
2019-10-18T09:39:03Z,42.805,6.029,13.2957,4.59957,2470.124,2019-10-18T11:39:29Z
2019-10-18T09:42:06Z,42.805,6.029,13.2958,4.59959,2470.087,2019-10-18T11:42:32Z
2019-10-18T09:45:10Z,42.805,6.029,13.2956,4.59961,2470.11,2019-10-18T11:45:35Z
2019-10-18T09:48:13Z,42.805,6.029,13.2956,4.59958,2470.133,2019-10-18T11:48:38Z
2019-10-18T09:51:16Z,42.805,6.029,13.2957,4.59956,2470.11,2019-10-18T11:51:42Z
2019-10-18T09:54:19Z,42.805,6.029,13.2956,4.59956,2470.11,2019-10-18T11:54:45Z
2019-10-18T09:57:22Z,42.805,6.029,13.2961,4.59956,2470.11,2019-10-18T11:57:48Z
2019-10-18T10:00:26Z,42.805,6.029,13.2961,4.59966,2470.11,2019-10-18T12:00:51Z
2019-10-18T10:03:29Z,42.805,6.029,13.2958,4.59973,2470.11,2019-10-18T12:03:54Z
2019-10-18T10:06:32Z,42.805,6.029,13.2967,4.59970,2470.1,2019-10-18T12:06:58Z
2019-10-18T10:09:35Z,42.805,6.029,13.3021,4.59986,2470.1,2019-10-18T12:10:01Z
2019-10-18T10:12:38Z,42.805,6.029,13.2953,4.59962,2470.063,2019-10-18T12:13:04Z
2019-10-18T10:15:42Z,42.805,6.029,13.2955,4.59958,2470.124,2019-10-18T12:16:07Z
2019-10-18T10:18:45Z,42.805,6.029,13.2961,4.59956,2470.1,2019-10-18T12:19:11Z
2019-10-18T10:21:48Z,42.805,6.029,13.2954,4.59956,2470.124,2019-10-18T12:22:14Z
2019-10-18T10:24:51Z,42.805,6.029,13.2960,4.59956,2470.124,2019-10-18T12:25:17Z
2019-10-18T10:27:55Z,42.805,6.029,13.2955,4.59961,2470.11,2019-10-18T12:28:20Z
2019-10-18T10:30:58Z,42.805,6.029,13.2954,4.59961,2470.124,2019-10-18T12:31:24Z
2019-10-18T10:34:01Z,42.805,6.029,13.2953,4.59956,2470.124,2019-10-18T12:34:27Z
2019-10-18T10:37:05Z,42.805,6.029,13.2957,4.59964,2470.087,2019-10-18T12:37:30Z
2019-10-18T10:40:08Z,42.805,6.029,13.2958,4.59959,2470.087,2019-10-18T12:40:33Z
2019-10-18T10:43:11Z,42.805,6.029,13.2952,4.59966,2470.1,2019-10-18T12:43:37Z
2019-10-18T10:46:14Z,42.805,6.029,13.2958,4.59971,2470.1,2019-10-18T12:46:40Z
2019-10-18T10:49:17Z,42.805,6.029,13.2953,4.59973,2470.11,2019-10-18T12:49:43Z
2019-10-18T10:52:21Z,42.805,6.029,13.2958,4.59969,2470.1,2019-10-18T12:52:46Z
2019-10-18T10:55:24Z,42.805,6.029,13.2958,4.59967,2470.087,2019-10-18T12:55:50Z
2019-10-18T10:58:27Z,42.805,6.029,13.2956,4.59966,2470.063,2019-10-18T12:58:53Z
2019-10-18T11:01:30Z,42.805,6.029,13.2954,4.59973,2470.087,2019-10-18T13:01:56Z
2019-10-18T11:04:34Z,42.805,6.029,13.2960,4.59971,2470.087,2019-10-18T13:04:59Z
2019-10-18T11:07:37Z,42.805,6.029,13.2957,4.59982,2470.077,2019-10-18T13:08:02Z
2019-10-18T11:10:40Z,42.805,6.029,13.2958,4.59973,2470.087,2019-10-18T13:11:06Z
2019-10-18T11:13:43Z,42.805,6.029,13.2956,4.59971,2470.04,2019-10-18T13:14:09Z
2019-10-18T11:16:46Z,42.805,6.029,13.2955,4.59983,2470.087,2019-10-18T13:17:12Z
2019-10-18T11:19:50Z,42.805,6.029,13.2968,4.59973,2470.1,2019-10-18T13:20:15Z
2019-10-18T11:22:53Z,42.805,6.029,13.2964,4.59972,2470.087,2019-10-18T13:23:18Z
2019-10-18T11:25:56Z,42.805,6.029,13.3004,4.59996,2470.077,2019-10-18T13:26:22Z
2019-10-18T11:28:59Z,42.805,6.029,13.2993,4.59981,2470.077,2019-10-18T13:29:25Z
2019-10-18T11:32:03Z,42.805,6.029,13.2990,4.59999,2470.053,2019-10-18T13:32:28Z
2019-10-18T11:35:06Z,42.805,6.029,13.2989,4.60031,2470.053,2019-10-18T13:35:31Z
2019-10-18T11:38:09Z,42.805,6.029,13.2985,4.60036,2470.077,2019-10-18T13:38:35Z
2019-10-18T11:41:12Z,42.805,6.029,13.2999,4.60038,2470.053,2019-10-18T13:41:38Z
2019-10-18T11:44:15Z,42.805,6.029,13.3004,4.60029,2470.1,2019-10-18T13:44:41Z
2019-10-18T11:47:19Z,42.805,6.029,13.3020,4.60003,2470.087,2019-10-18T13:47:44Z
2019-10-18T11:50:22Z,42.805,6.029,13.3019,4.60028,2470.087,2019-10-18T13:50:48Z
2019-10-18T11:53:25Z,42.805,6.029,13.3018,4.59986,2470.053,2019-10-18T13:53:51Z
2019-10-18T11:56:28Z,42.805,6.029,13.3019,4.60022,2470.04,2019-10-18T13:56:54Z
2019-10-18T11:59:32Z,42.805,6.029,13.3004,4.60031,2470.063,2019-10-18T13:59:57Z
2019-10-18T12:02:35Z,42.805,6.029,13.3007,4.60011,2470.077,2019-10-18T14:03:00Z
2019-10-18T12:05:38Z,42.805,6.029,13.2984,4.60033,2470.03,2019-10-18T14:06:04Z
2019-10-18T12:08:41Z,42.805,6.029,13.2996,4.60014,2470.053,2019-10-18T14:09:07Z
2019-10-18T12:11:45Z,42.805,6.029,13.3010,4.60009,2470.03,2019-10-18T14:12:10Z
2019-10-18T12:14:48Z,42.805,6.029,13.3023,4.60003,2470.03,2019-10-18T14:15:13Z
2019-10-18T12:17:51Z,42.805,6.029,13.2991,4.59984,2470.04,2019-10-18T14:18:17Z
2019-10-18T12:20:54Z,42.805,6.029,13.3004,4.59981,2470.03,2019-10-18T14:21:20Z
2019-10-18T12:23:57Z,42.805,6.029,13.3006,4.59998,2470.03,2019-10-18T14:24:23Z
2019-10-18T12:27:01Z,42.805,6.029,13.3014,4.59989,2470.017,2019-10-18T14:27:26Z
2019-10-18T12:30:04Z,42.805,6.029,13.3014,4.60022,2470.03,2019-10-18T14:30:30Z
2019-10-18T12:33:07Z,42.805,6.029,13.3006,4.60009,2470.03,2019-10-18T14:33:33Z
2019-10-18T12:36:10Z,42.805,6.029,13.2979,4.60010,2470.017,2019-10-18T14:36:36Z
2019-10-18T12:39:14Z,42.805,6.029,13.2989,4.60020,2470.017,2019-10-18T14:39:39Z
2019-10-18T12:42:17Z,42.805,6.029,13.2996,4.59976,2470.017,2019-10-18T14:42:43Z
2019-10-18T12:45:20Z,42.805,6.029,13.2974,4.59979,2470.04,2019-10-18T14:45:46Z
2019-10-18T12:48:23Z,42.805,6.029,13.3011,4.59981,2470.03,2019-10-18T14:48:49Z
2019-10-18T12:51:27Z,42.805,6.029,13.2991,4.59996,2470.04,2019-10-18T14:51:52Z
2019-10-18T12:54:30Z,42.805,6.029,13.2996,4.59988,2469.993,2019-10-18T14:54:55Z
2019-10-18T12:57:33Z,42.805,6.029,13.2996,4.59983,2470.04,2019-10-18T14:57:59Z
2019-10-18T13:00:36Z,42.805,6.029,13.2995,4.59975,2470.017,2019-10-18T15:01:02Z
2019-10-18T13:03:40Z,42.805,6.029,13.2974,4.59999,2469.993,2019-10-18T15:04:05Z
2019-10-18T13:06:43Z,42.805,6.029,13.2984,4.60001,2470.03,2019-10-18T15:07:09Z
2019-10-18T13:09:46Z,42.805,6.029,13.2982,4.59978,2470.007,2019-10-18T15:10:12Z
2019-10-18T13:12:49Z,42.805,6.029,13.2984,4.59982,2470.04,2019-10-18T15:13:15Z
2019-10-18T13:15:53Z,42.805,6.029,13.2982,4.59992,2469.97,2019-10-18T15:16:18Z
2019-10-18T13:18:56Z,42.805,6.029,13.3020,4.60008,2470.017,2019-10-18T15:19:22Z
2019-10-18T13:21:59Z,42.805,6.029,13.2976,4.59987,2470.017,2019-10-18T15:22:25Z
2019-10-18T13:25:02Z,42.805,6.029,13.2991,4.59995,2469.993,2019-10-18T15:25:28Z
2019-10-18T13:28:06Z,42.805,6.029,13.2991,4.59987,2469.993,2019-10-18T15:28:31Z
2019-10-18T13:31:09Z,42.805,6.029,13.2998,4.59998,2469.97,2019-10-18T15:31:35Z
2019-10-18T13:34:12Z,42.805,6.029,13.3023,4.59985,2469.984,2019-10-18T15:34:38Z
2019-10-18T13:37:15Z,42.805,6.029,13.2984,4.59987,2470.007,2019-10-18T15:37:41Z
2019-10-18T13:40:19Z,42.805,6.029,13.3022,4.59999,2470.03,2019-10-18T15:40:44Z
2019-10-18T13:43:22Z,42.805,6.029,13.3014,4.60011,2470.007,2019-10-18T15:43:47Z
2019-10-18T13:46:25Z,42.805,6.029,13.3011,4.59994,2469.993,2019-10-18T15:46:51Z
2019-10-18T13:49:28Z,42.805,6.029,13.3008,4.59986,2470.007,2019-10-18T15:49:54Z
2019-10-18T13:52:31Z,42.805,6.029,13.2991,4.59988,2469.947,2019-10-18T15:52:57Z
2019-10-18T13:55:35Z,42.805,6.029,13.3014,4.59997,2469.97,2019-10-18T15:56:00Z
2019-10-18T13:58:38Z,42.805,6.029,13.3014,4.59989,2469.96,2019-10-18T15:59:04Z
2019-10-18T14:01:41Z,42.805,6.029,13.3001,4.60003,2469.993,2019-10-18T16:02:07Z
2019-10-18T14:04:44Z,42.805,6.029,13.3000,4.59999,2469.993,2019-10-18T16:05:10Z
2019-10-18T14:07:48Z,42.805,6.029,13.2996,4.59989,2469.984,2019-10-18T16:08:13Z
2019-10-18T14:10:51Z,42.805,6.029,13.3004,4.60001,2470.007,2019-10-18T16:11:16Z
2019-10-18T14:13:54Z,42.805,6.029,13.3011,4.59986,2469.96,2019-10-18T16:14:20Z
2019-10-18T14:16:57Z,42.805,6.029,13.3005,4.59991,2469.984,2019-10-18T16:17:23Z
2019-10-18T14:20:00Z,42.805,6.029,13.2992,4.59988,2469.947,2019-10-18T16:20:26Z
2019-10-18T14:23:04Z,42.805,6.029,13.2987,4.59997,2469.97,2019-10-18T16:23:29Z
2019-10-18T14:26:07Z,42.805,6.029,13.2994,4.59984,2469.97,2019-10-18T16:26:33Z
2019-10-18T14:29:10Z,42.805,6.029,13.2998,4.59991,2469.97,2019-10-18T16:29:36Z
2019-10-18T14:32:13Z,42.805,6.029,13.3002,4.59989,2469.984,2019-10-18T16:32:39Z
2019-10-18T14:35:17Z,42.805,6.029,13.2995,4.59989,2469.984,2019-10-18T16:35:42Z
2019-10-18T14:38:20Z,42.805,6.029,13.3000,4.59992,2470.007,2019-10-18T16:38:45Z
2019-10-18T14:41:23Z,42.805,6.029,13.3011,4.59988,2470.017,2019-10-18T16:41:49Z
2019-10-18T14:44:26Z,42.805,6.029,13.2990,4.59987,2469.947,2019-10-18T16:44:52Z
2019-10-18T14:47:29Z,42.805,6.029,13.2989,4.59993,2469.96,2019-10-18T16:47:55Z
2019-10-18T14:50:33Z,42.805,6.029,13.2997,4.59988,2470.007,2019-10-18T16:50:58Z
2019-10-18T14:53:36Z,42.805,6.029,13.2991,4.59988,2469.984,2019-10-18T16:54:01Z
2019-10-18T14:56:39Z,42.805,6.029,13.2996,4.59983,2469.97,2019-10-18T16:57:05Z
2019-10-18T14:59:42Z,42.805,6.029,13.2993,4.59986,2469.97,2019-10-18T17:00:08Z
2019-10-18T15:02:45Z,42.805,6.029,13.2993,4.59983,2469.96,2019-10-18T17:03:11Z
2019-10-18T15:05:49Z,42.805,6.029,13.2986,4.59988,2469.923,2019-10-18T17:06:14Z